Location: Newark
(40.9833°N, 0.0333°W)
Time: 02:30:29
(UTC+00:00)

deb Explorer IX - Pass Details

Date: 03 November 2020
Orbit: 537 x 1105 km, 38.8° (Epoch: 02 December)

Event Time Altitude Azimuth Distance (km) Brightness Sun altitude
Rises 01:07:42 0° 189° (S) 2,848 - -58.4°
Reaches altitude 10° 01:12:35 10° 142° (SE) 2,102 - -57.8°
Maximum altitude 01:12:53 10° 138° (SE) 2,109 - -57.7°
Drops below altitude 10° 01:13:10 10° 135° (SE) 2,122 - -57.7°
Sets 01:18:37 0° 90° (E) 3,252 - -57.0°
